Location: Hartman Creek State Park
(44.3257°N, 89.2134°W)
Time: 15:25:54
(UTC-05:00)

Terra - Visible Passes

Search period start: 20 August 2014 00:00
Search period end: 30 August 2014 00:00
Orbit: 701 x 703 km, 98.2° (Epoch: 20 August)

Date Brightness Start Highest point End Pass type
(mag) Time Alt. Az. Time Alt. Az. Time Alt. Az.
20 Aug 2.3 22:22:56 45° ENE 22:23:01 45° ENE 22:27:33 10° N visible
21 Aug 3.9 00:01:49 20° WNW 00:01:49 20° WNW 00:04:35 10° NW visible
21 Aug 3.7 21:27:25 14° ENE 21:28:33 15° ENE 21:31:12 10° NNE visible
21 Aug 2.1 23:06:18 63° NW 23:06:18 63° NW 23:10:28 10° NNW visible
22 Aug 2.6 22:10:47 35° ENE 22:10:54 35° ENE 22:15:11 10° N visible
22 Aug 3.6 23:49:41 25° WNW 23:49:41 25° WNW 23:52:44 10° NW visible
23 Aug 3.9 21:15:16 11° ENE 21:16:31 12° ENE 21:18:11 10° NE visible
23 Aug 2.0 22:54:10 67° N 22:54:10 67° N 22:58:17 10° NNW visible
24 Aug 3.0 21:58:39 27° ENE 21:58:47 27° ENE 22:02:46 10° N visible
24 Aug 3.3 23:37:32 31° WNW 23:37:32 31° WNW 23:40:46 10° NNW visible
25 Aug 2.1 22:42:01 58° NNE 22:42:01 58° NNE 22:46:03 10° N visible
26 Aug 4.4 00:20:55 13° WNW 00:20:55 13° WNW 00:22:02 10° WNW visible
26 Aug 3.3 21:46:30 21° ENE 21:46:42 21° ENE 21:50:16 10° NNE visible
26 Aug 3.1 23:25:24 37° WNW 23:25:24 37° WNW 23:28:43 10° NNW visible
27 Aug 2.4 22:29:53 46° NE 22:29:53 46° NE 22:33:46 10° N visible
28 Aug 4.2 00:08:46 16° WNW 00:08:46 16° WNW 00:10:30 10° NW visible
28 Aug 3.6 21:34:22 17° ENE 21:34:38 17° ENE 21:37:39 10° NNE visible
28 Aug 2.9 23:13:16 43° NW 23:13:16 43° NW 23:16:36 10° NNW visible
29 Aug 2.7 22:17:45 37° NE 22:17:45 37° NE 22:21:26 10° N visible
29 Aug 4.0 23:56:38 20° WNW 23:56:38 20° WNW 23:58:43 10° NW visible
